Weather History for PHNL - April, 2013

Change the Weather History Date:

Sunday, April 7, 2013

  Actual Average Record
Temperature  
Mean Temperature 78 °F 76 °F  
Max Temperature 86 °F 82 °F 89 °F (1996)
Min Temperature 70 °F 69 °F 57 °F (1985)
Degree Days  
Heating Degree Days 0 0  
Month to date heating degree days 0 0  
Since 1 July heating degree days 0 0  
Cooling Degree Days 13 11  
Month to date cooling degree days 56 77  
Year to date cooling degree days 811 852  
Growing Degree Days 27 (Base 50)    
Moisture  
Dew Point 67 °F    
Average Humidity 73    
Maximum Humidity 90    
Minimum Humidity 55    
Precipitation  
Precipitation 0.00 in 0.03 in 0.65 in (1948)
Month to date precipitation T 0.24  
Year to date precipitation 6.02 6.56  
Snow  
Snow 0.00 in - - ()
Month to date snowfall 0.0  
Since 1 July snowfall 0.0  
Snow Depth 0.00 in    
Sea Level Pressure  
Sea Level Pressure 30.13 in    
Wind  
Wind Speed 8 mph (NNE)    
Max Wind Speed 18 mph    
Max Gust Speed 24 mph    
Visibility 10 miles    
Events      
T = Trace of Precipitation, MM = Missing Value Source: NWS Daily Summary

Daily Weather History Graph

Daily Weather History Graph

Search for Another Location

Airport or City:

Trip Planner

Search our weather history database for the weather conditions in past years. The results will help you decide how hot, cold, wet, or windy it might be!

Date:

Astronomy

Apr. 07, 2013 Rise Set
Actual Time 6:19 AM HST 6:48 PM HST
Civil Twilight 5:56 AM HST 7:11 PM HST
Nautical Twilight 5:30 AM HST 7:37 PM HST
Astronomical Twilight 5:03 AM HST 8:03 PM HST
Moon 4:25 AM HST (4/7) 4:45 PM HST (4/7)
Length of Visible Light 13h 14m
Length of Day
12h 29m
Waning Crescent, 7% of the Moon is Illuminated
Apr 7
Waning Crescent
Apr 9
New
Apr 18
First Quarter
Apr 25
Full
May 2
Last Quarter

Hourly Weather History & Observations

Time (HST) Temp. Heat Index Dew Point Humidity Pressure Visibility Wind Dir Wind Speed Gust Speed Precip Events Conditions
12:53 AM 73.0 °F - 68.0 °F 84% 30.15 in 10.0 mi Calm Calm - N/A   Partly Cloudy
1:53 AM 72.0 °F - 68.0 °F 87% 30.14 in 10.0 mi Calm Calm - N/A   Partly Cloudy
2:53 AM 72.0 °F - 68.0 °F 87% 30.13 in 10.0 mi NNW 3.5 mph - N/A   Partly Cloudy
3:53 AM 71.1 °F - 68.0 °F 90% 30.12 in 10.0 mi NNW 4.6 mph - N/A   Partly Cloudy
4:53 AM 72.0 °F - 68.0 °F 87% 30.13 in 10.0 mi Variable 3.5 mph - N/A   Partly Cloudy
5:53 AM 71.1 °F - 66.9 °F 87% 30.14 in 10.0 mi WNW 3.5 mph - N/A   Partly Cloudy
6:53 AM 71.1 °F - 66.9 °F 87% 30.15 in 10.0 mi NW 5.8 mph - N/A   Partly Cloudy
7:53 AM 75.0 °F - 66.9 °F 76% 30.16 in 10.0 mi NW 6.9 mph - N/A   Partly Cloudy
8:53 AM 79.0 °F - 69.1 °F 72% 30.17 in 10.0 mi NNE 10.4 mph - N/A   Scattered Clouds
9:53 AM 82.0 °F 84.9 °F 68.0 °F 62% 30.18 in 10.0 mi East 15.0 mph - N/A   Mostly Cloudy
10:53 AM 82.9 °F 85.8 °F 68.0 °F 60% 30.17 in 10.0 mi East 13.8 mph 19.6 mph N/A   Mostly Cloudy
11:53 AM 84.9 °F 87.6 °F 66.9 °F 55% 30.15 in 10.0 mi ENE 17.3 mph 23.0 mph N/A   Mostly Cloudy
12:53 PM 82.9 °F 85.0 °F 66.0 °F 56% 30.13 in 10.0 mi NE 13.8 mph - N/A   Mostly Cloudy
1:53 PM 84.9 °F 87.6 °F 66.9 °F 55% 30.10 in 10.0 mi NE 12.7 mph 19.6 mph N/A   Scattered Clouds
2:53 PM 82.9 °F 85.4 °F 66.9 °F 58% 30.09 in 10.0 mi NE 13.8 mph - N/A   Mostly Cloudy
3:53 PM 84.0 °F 86.5 °F 66.9 °F 56% 30.08 in 10.0 mi NE 9.2 mph 20.7 mph N/A   Scattered Clouds
4:53 PM 82.9 °F 85.4 °F 66.9 °F 58% 30.07 in 10.0 mi NE 12.7 mph - N/A   Scattered Clouds
5:53 PM 80.1 °F 82.3 °F 66.9 °F 64% 30.07 in 10.0 mi NE 13.8 mph - N/A   Scattered Clouds
6:53 PM 77.0 °F - 66.9 °F 71% 30.09 in 10.0 mi ENE 10.4 mph - N/A   Scattered Clouds
7:53 PM 77.0 °F - 66.9 °F 71% 30.11 in 10.0 mi ENE 12.7 mph - N/A   Scattered Clouds
8:53 PM 75.9 °F - 66.9 °F 74% 30.13 in 10.0 mi ENE 6.9 mph - N/A   Scattered Clouds
9:53 PM 75.0 °F - 66.9 °F 76% 30.14 in 10.0 mi Calm Calm - N/A   Scattered Clouds
10:53 PM 73.9 °F - 66.0 °F 76% 30.14 in 10.0 mi NNE 4.6 mph - N/A   Scattered Clouds
11:53 PM 73.0 °F - 66.0 °F 79% 30.12 in 10.0 mi NNE 4.6 mph - N/A   Scattered Clouds